Flag for U.S.A. Weather past 2 weeks in Pocatello, Idaho, U.S.A.

Now
60 °F

Passing clouds.


Feels Like: 60 °F
Forecast: 33 / 65 °F
Wind: 10 mph from North

Location: Pocatello Regional Airport

Current Time: Apr 27, 2015 at 3:50:27 PM

Latest Report: Apr 27, 2015 at 2:53 PM


Visibility: 10 mi

Pressure: 30.23 "Hg

Humidity: 27%

Dew point: 26 °F

Location of PocatelloLocation

Historic Weather in Pocatello — Graph

°F

Pocatello temperature yesterday

Maximum temperature yesterday: 57 °F (at 4:53 PM)
Minimum temperature yesterday: 35 °F (at 6:53 AM)
Average temperature yesterday: 45 °F

Past Weeks' High & Low Weather Summary

 TemperatureHumidityPressure
High73 °F (Apr 22, 3:53 PM)100% (Apr 14, 2:53 PM)30.31 "Hg (Apr 14, 2:53 PM)
Low28 °F (Apr 13, 6:53 AM)10% (Apr 23, 6:53 PM)29.59 "Hg (Apr 14, 2:53 AM)
Average49 °F50%29.93 "Hg
* Reported Apr 12 1:53 PM — Apr 27 1:53 PM, Pocatello, Weather by CustomWeather, © 2015

Note: Actual official high and low records may vary slightly from our data, if they occured in-between our weather recording intervals... More about our weather records

Advertising

Pocatello weather history for previous 24 hours

 ConditionsComfort  
Time TempWeatherWind HumidityBarometerVisibility
1:53 PM
Mon, Apr 27
58 °FPassing clouds.12 mph31%30.24 "Hg10 mi
12:53 PM55 °FPassing clouds.6 mph33%30.26 "Hg10 mi
11:53 AM53 °FPassing clouds.12 mph45%30.29 "Hg10 mi
10:53 AM51 °FPassing clouds.9 mph48%30.29 "Hg10 mi
9:53 AM47 °FPassing clouds.5 mph56%30.31 "Hg10 mi
8:53 AM43 °FPassing clouds.No wind60%30.30 "Hg10 mi
7:53 AM39 °FPassing clouds.6 mph70%30.29 "Hg10 mi
6:53 AM32 °FPassing clouds.3 mph79%30.28 "Hg10 mi
5:53 AM34 °FClear.7 mph70%30.25 "Hg10 mi
4:53 AM34 °FClear.7 mph70%30.23 "Hg10 mi
3:53 AM37 °FClear.6 mph73%30.23 "Hg10 mi
2:53 AM41 °FOvercast.7 mph67%30.21 "Hg10 mi
1:53 AM43 °FOvercast.9 mph60%30.21 "Hg10 mi
12:53 AM46 °FOvercast.10 mph68%30.20 "Hg10 mi
11:53 PM
Sun, Apr 26
46 °FLight rain. Overcast.7 mph83%30.18 "Hg10 mi
10:53 PM49 °FOvercast.No wind59%30.16 "Hg10 mi
9:53 PM49 °FOvercast.5 mph61%30.14 "Hg10 mi
8:53 PM50 °FBroken clouds.7 mph48%30.11 "Hg10 mi
7:53 PM53 °FPartly sunny.7 mph39%30.07 "Hg10 mi
6:53 PM55 °FPartly sunny.8 mph33%30.05 "Hg10 mi
5:53 PM55 °FPartly sunny.10 mph33%30.03 "Hg10 mi
4:53 PM57 °FPartly sunny.14 mph31%30.01 "Hg10 mi
3:53 PM54 °FMore clouds than sun.12 mph35%30.02 "Hg10 mi
Weather by CustomWeather, © 2015

See weather overviewHow to use our weather pages